Location: Monrovia
(34.7865°N, 86.7139°W)
Time: 21:44:44
(UTC+00:00)

OAO 3 Copernicus - Pass Details

Date: 14 July 2020
Orbit: 695 x 704 km, 35.0° (Epoch: 08 August)

Event Time Altitude Azimuth Distance (km) Brightness Sun altitude
Rises 01:23:53 0° 258° (WSW) 3,077 8.4 -4.9°
Reaches altitude 10° 01:26:18 10° 257° (WSW) 2,160 7.6 -5.3°
Maximum altitude 01:31:22 83° 171° (S) 709 4.3 -6.2°
Drops below altitude 10° 01:36:27 10° 83° (E) 2,159 6.4 -7.1°
Enters shadow 01:38:27 - 83° (E) 2,919 7.0 -7.4°
